This demonstration page uses our WeatherBlox Daily Observations layout. Learn more.

Hourly Observations for February 3, 2015

Temp ( °F °C ) Dew Point ( °F °C ) Humidity (%) Winds ( mph kmh ) Pressure ( in mb ) Visibility ( mi km ) Precip ( " mm )
12:15 am 00:15 Clear 19 -7.2 17 -8.2 93 93 N 5 7 30.21 1023 10 16.0934 0 0
12:35 am 00:35 Clear 20 -6.4 19 -7.4 93 93 N 3 6 30.24 1024 10 16.0934 0 0
12:55 am 00:55 Clear 21 -6.2 19 -7.3 92 92 Calm 30.24 1024 10 16.0934 0 0
1:15 am 01:15 Clear 22 -5.7 20 -6.8 92 92 Calm 30.18 1022 10 16.0934 0 0
1:35 am 01:35 Clear 23 -4.8 22 -5.8 93 93 S 3 6 30.18 1022 10 16.0934 0 0
1:55 am 01:55 Clear 23 -5.2 20 -6.4 91 91 Calm 30.18 1022 10 16.0934 0 0
2:15 am 02:15 Clear 23 -5.2 21 -6.3 92 92 Calm 30.15 1021 10 16.0934 0 0
2:55 am 02:55 Clear 21 -6.1 19 -7.2 92 92 Calm 30.15 1021 10 16.0934 0 0
3:15 am 03:15 Clear 19 -7 17 -8.1 92 92 Calm 30.18 1022 10 16.0934 0 0
3:35 am 03:35 Clear 19 -7 18 -8 93 93 E 3 6 30.15 1021 10 16.0934 0 0
3:55 am 03:55 Clear 20 -6.7 18 -7.7 93 93 E 5 7 30.15 1021 10 16.0934 0 0
4:15 am 04:15 Partly Cloudy 20 -6.8 18 -7.8 93 93 ESE 7 11 30.12 1020 10 16.0934 0 0
4:35 am 04:35 Partly Cloudy 21 -6 20 -6.9 93 93 SSE 5 7 30.09 1019 10 16.0934 0 0
4:55 am 04:55 Clear 22 -5.4 21 -6.3 93 93 S 7 11 30.09 1019 10 16.0934 0 0
5:15 am 05:15 Clear 22 -5.8 20 -6.9 92 92 SSE 5 7 30.09 1019 10 16.0934 0 0
5:35 am 05:35 Clear 20 -6.4 19 -7.3 93 93 SSE 8 13 30.09 1019 10 16.0934 0 0
5:55 am 05:55 Clear 22 -5.8 20 -6.9 92 92 S 8 13 30.06 1018 10 16.0934 0 0
6:15 am 06:15 Clear 24 -4.7 21 -6 91 91 S 5 7 30.06 1018 10 16.0934 0 0
6:35 am 06:35 Clear 24 -4.7 21 -6 91 91 SSE 8 13 30.06 1018 10 16.0934 0 0
6:55 am 06:55 Clear 23 -5.2 20 -6.5 91 91 SSE 9 15 30.03 1017 10 16.0934 0 0
7:15 am 07:15 Clear 22 -5.5 20 -6.7 91 91 S 6 9 30.03 1017 10 16.0934 0 0
7:35 am 07:35 Partly Cloudy 22 -5.3 20 -6.4 92 92 S 7 11 30.03 1017 10 16.0934 0 0
7:55 am 07:55 Partly Cloudy 23 -4.8 21 -6 91 91 S 10 17 30.03 1017 10 16.0934 0 0
8:15 am 08:15 Mostly Cloudy 24 -4.5 22 -5.7 91 91 S 9 15 30 1016 10 16.0934 0 0
8:35 am 08:35 Cloudy 28 -2 26 -3.6 89 89 SSW 12 19 30 1016 10 16.0934 0 0
8:55 am 08:55 Cloudy 32 0 27 -2.7 82 82 SSW 15 24 29.94 1014 10 16.0934 0 0
9:15 am 09:15 Mostly Cloudy 32 0 27 -2.9 81 81 SSW 12 19 29.94 1014 10 16.0934 0 0
9:35 am 09:35 Partly Cloudy 33 0.7 27 -2.6 79 79 SSW 13 20 29.94 1014 10 16.0934 0 0
9:55 am 09:55 Sunny 34 1.2 28 -2.4 77 77 SW 6 9 29.97 1015 10 16.0934 0 0
10:15 am 10:15 Sunny 36 2.1 28 -2 75 75 SW 9 15 29.91 1013 10 16.0934 0 0
10:35 am 10:35 Sunny 37 3 28 -2 70 70 WSW 10 17 29.94 1014 10 16.0934 0 0
10:55 am 10:55 Sunny 38 3.5 29 -1.5 70 70 W 9 15 29.94 1014 10 16.0934 0 0
11:15 am 11:15 Sunny 39 4 29 -1.4 68 68 W 9 15 29.97 1015 10 16.0934 0 0
11:35 am 11:35 Sunny 39 3.9 30 -0.9 71 71 W 9 15 29.94 1014 10 16.0934 0 0
11:55 am 11:55 Sunny 41 4.8 32 -0.1 71 71 W 7 11 29.91 1013 10 16.0934 0 0
12:15 pm 12:15 Sunny 41 5.2 32 -0.2 68 68 W 7 11 29.91 1013 10 16.0934 0 0
12:35 pm 12:35 Sunny 43 6 33 0.3 67 67 W 7 11 29.91 1013 10 16.0934 0 0
12:55 pm 12:55 Sunny 43 6.3 32 0.2 65 65 WNW 5 7 29.91 1013 10 16.0934 0 0
1:15 pm 13:15 Sunny 45 7.4 34 1.2 65 65 WNW 7 11 29.91 1013 10 16.0934 0 0
1:35 pm 13:35 Sunny 46 7.7 34 1.1 63 63 WNW 7 11 29.91 1013 10 16.0934 0 0
1:55 pm 13:55 Sunny 47 8.4 34 1.2 61 61 W 5 7 29.85 1011 10 16.0934 0 0
2:15 pm 14:15 Sunny 48 9 35 1.7 61 61 WNW 6 9 29.85 1011 10 16.0934 0 0
2:35 pm 14:35 Sunny 50 9.9 37 2.5 60 60 WNW 5 7 29.85 1011 10 16.0934 0 0
2:55 pm 14:55 Sunny 50 10.1 36 2 57 57 WNW 8 13 29.88 1012 10 16.0934 0 0
3:15 pm 15:15 Sunny 51 10.3 36 2.4 58 58 WNW 8 13 29.88 1012 10 16.0934 0 0
3:35 pm 15:35 Sunny 51 10.5 37 2.5 58 58 WNW 5 7 29.88 1012 10 16.0934 0 0
3:55 pm 15:55 Sunny 51 10.7 38 3.1 60 60 NW 5 7 29.88 1012 10 16.0934 0 0
4:15 pm 16:15 Sunny 52 11 37 2.9 58 58 NNW 3 6 29.88 1012 10 16.0934 0 0
4:35 pm 16:35 Sunny 52 11 37 3 58 58 Calm 29.91 1013 10 16.0934 0 0
4:55 pm 16:55 Sunny 51 10.5 37 3 60 60 N 6 9 29.91 1013 10 16.0934 0 0
5:15 pm 17:15 Sunny 49 9.4 37 2.6 63 63 N 5 7 29.91 1013 10 16.0934 0 0
5:35 pm 17:35 Sunny 46 7.5 37 2.7 72 72 NNE 3 6 29.94 1014 10 16.0934 0 0
5:55 pm 17:55 Sunny 42 5.3 36 2 80 80 ENE 5 7 29.97 1015 10 16.0934 0 0
6:15 pm 18:15 Clear 41 5.2 35 1.7 78 78 E 6 9 29.97 1015 10 16.0934 0 0
6:35 pm 18:35 Clear 38 3.1 33 0.5 83 83 E 7 11 29.97 1015 10 16.0934 0 0
6:55 pm 18:55 Clear 38 3.6 34 0.9 83 83 E 7 11 30 1016 10 16.0934 0 0
7:15 pm 19:15 Clear 36 2.1 32 -0.1 86 86 E 6 9 30.03 1017 10 16.0934 0 0
7:35 pm 19:35 Clear 39 3.8 34 1.1 83 83 E 8 13 30 1016 10 16.0934 0 0
7:55 pm 19:55 Clear 37 3 33 0.8 86 86 ENE 12 19 30 1016 10 16.0934 0 0
8:15 pm 20:15 Partly Cloudy 38 3.1 32 0.1 81 81 NE 14 22 30.03 1017 10 16.0934 0 0
8:35 pm 20:35 Partly Cloudy 37 2.5 32 0 84 84 ENE 13 20 30.03 1017 10 16.0934 0 0
8:55 pm 20:55 Mostly Cloudy 36 2.1 32 0 86 86 ENE 9 15 30.06 1018 10 16.0934 0 0
9:15 pm 21:15 Cloudy 36 2 32 -0.1 86 86 NE 12 19 30.09 1019 10 16.0934 0 0
9:35 pm 21:35 Cloudy 35 1.7 32 -0.1 88 88 NE 12 19 30.09 1019 10 16.0934 0 0
9:55 pm 21:55 Cloudy 35 1.6 31 -0.4 87 87 NE 9 15 30.09 1019 10 16.0934 0 0
10:15 pm 22:15 Cloudy 35 1.5 31 -0.5 87 87 ENE 9 15 30.09 1019 10 16.0934 0 0
10:35 pm 22:35 Mostly Cloudy 34 1.1 31 -0.6 89 89 ENE 10 17 30.09 1019 10 16.0934 0 0
10:55 pm 22:55 Mostly Cloudy 33 0.7 31 -0.8 90 90 ENE 7 11 30.12 1020 10 16.0934 0 0
11:15 pm 23:15 Mostly Cloudy 33 0.6 30 -1 89 89 NE 10 17 30.12 1020 10 16.0934 0 0
11:35 pm 23:35 Mostly Cloudy 32 0.2 30 -1.2 90 90 NE 7 11 30.09 1019 10 16.0934 0 0
11:55 pm 23:55 Mostly Cloudy 32 0.1 30 -1.3 90 90 NNE 10 17 30.12 1020 10 16.0934 0 0

Powered by AerisWeather